Regional Weather Roundup
Issued by NWS

Home | Current Version | Previous Version | Text Only | Print | Product List | Glossary Off
Versions: 1 2 3 4 5 6 7 8 9 10 11 12 13 14 15 16 17 18 19 20 21 22 23 24 25 26 27 28 29 30 31 32 33 34 35 36 37 38 39 40 41 42 43 44 45 46 47 48 49 50

000
ASUS43 KLSX 042007
RWRMO

WEATHER SUMMARY FOR MISSOURI
NATIONAL WEATHER SERVICE SPRINGFIELD MO
200 PM CST WED MAR 04 2015

NOTE: "FAIR" INDICATES FEW OR NO CLOUDS BELOW 12,000 FEET WITH NO
       SIGNIFICANT WEATHER AND/OR OBSTRUCTIONS TO VISIBILITY.
       CURRENT SKY AND/OR WEATHER CONDITIONS ARE NOT AVAILABLE FOR
       CHILLICOTHE AND FARMINGTON.

MOZ001>031-035>038-043-044-053-054-042100-
...NORTHERN AND WESTERN MISSOURI...

CITY           SKY/WX    TMP DP  RH WIND       PRES   REMARKS
KANSAS CTY INT CLOUDY    27   4  37 N12       30.28  WCI  17
KANSAS C DTWN  CLOUDY    27   1  32 N12G22    30.30  WCI  17
LEE`S SUMMIT   CLOUDY    25   3  38 N12       30.28  WCI  14
ST JOSEPH      PTSUNNY   30   4  33 N16G24    30.30  WCI  19
CHILLICOTHE      N/A     26   5  40 VRB7      30.31F WCI  18

$$
MOZ066>068-077>081-088>096-101>105-042100-
...SOUTHWEST MISSOURI...

CITY           SKY/WX    TMP DP  RH WIND       PRES   REMARKS
SPRINGFIELD    FLURRIES  22  13  68 N20       30.19R WCI   7
JOPLIN         FLURRIES  25  15  66 N13G22    30.22  WCI  14

$$
MOZ032>034-039>042-045>050-055>058-069>072-042100-
...CENTRAL MISSOURI...

CITY           SKY/WX    TMP DP  RH WIND       PRES   REMARKS
COLUMBIA       CLOUDY    24   6  46 N15       30.24  WCI  11
JEFFERSON CITY CLOUDY    24   4  42 N9        30.28  WCI  14
ROLLA          FLURRIES  20   7  57 N16       30.19  WCI   6
SEDALIA        PTSUNNY   25   9  50 N13       30.28  WCI  14
WHITEMAN AFB   CLOUDY    25   8  49 N16       30.26F WCI  12
WARRENSBURG    CLOUDY    27   5  39 N13       30.28F WCI  16
OSAGE BEACH    CLOUDY    25   9  50 N8        30.25R WCI  16

$$
MOZ051-052-059>065-042100-
...EAST CENTRAL MISSOURI...

CITY           SKY/WX    TMP DP  RH WIND       PRES   REMARKS
ST LOUIS INTL  CLOUDY    24   7  48 N12       30.23S WCI  13
SPIRIT OF STL  CLOUDY    23   6  48 N13       30.23  WCI  11
ST CHARLES     CLOUDY    23   6  48 N14       30.25  WCI  11

$$
MOZ072>076-082>087-097>100-106>115-042100-
...SOUTH CENTRAL AND SOUTHEAST MISSOURI...

CITY           SKY/WX    TMP DP  RH WIND       PRES   REMARKS
CAPE GIRARDEAU LGT SNOW  24  21  88 N20G25    30.15R VSB 3/4 WCI  10
FARMINGTON     CLOUDY    19  16  86 N14G22    30.17F VSB 1/2 WCI   6
POPLAR BLUFF   MIX PCPN  27  21  78 N21       30.10F WCI  13
WEST PLAINS    SNOW      21  16  81 N16G24    30.13R VSB 1/2 WCI   7

$$


USA.gov is the U.S. government's official web portal to all federal, state and local government web resources and services.